[Date Prev][Date Next][Thread Prev][Thread Next] - [Date Index][Thread Index][Author Index]

2 Line ISS Keps 4-14



ISS
1 25544U 98067A   05104.34750881  .00020837  00000-0  16638-3 0  2389
2 25544 051.6458 227.6849 0006560 011.7378 037.5582 15.71070552365640
----
Via the sarex mailing list at AMSAT.ORG courtesy of AMSAT-NA.
To unsubscribe, send "unsubscribe sarex" to Majordomo@amsat.org



AMSAT Top AMSAT Home